Lid_Strength_Index
6 7 9 8 7 7 8 9 9 8 6 8 8 8 9 7 7 6 6 6 5 5 4 3 2 2 1 1 1 2 3 2 0 1 1 1 1 1 0 -0 -0 -0 -0 -0
8 9 7 6 6 7 8 9 9 8 6 7 8 8 8 8 7 6 6 6 5 5 4 3 3 2 2 2 1 1 1 1 1 0 0 1 1 0 0 -0 -0 -0 -0 -0
9 7 6 6 7 8 8 9 9 9 7 7 8 9 8 7 6 5 5 5 5 5 5 4 3 3 2 2 2 1 1 1 0 0 0 0 0 0 1 1 1 0 -0 -0
8 6 7 7 8 7 10 7 8 8 9 12 8 13 9 7 8 6 6 5 5 4 4 4 4 3 3 2 1 1 1 1 0 0 1 1 2 2 1 1 0 0 -0 0
9 7 7 8 8 7 8 6 7 8 9 10 10 12 10 7 8 7 6 5 5 4 4 4 4 3 2 2 2 1 1 1 1 1 1 1 2 1 1 1 1 1 0 -0
8 5 6 7 6 6 6 7 8 8 9 14 10 11 12 10 9 7 6 5 5 4 4 3 3 2 2 2 2 1 1 1 1 1 1 1 2 2 2 2 2 1 1 0
9 7 6 5 7 6 7 9 14 15 15 16 9 11 11 8 7 6 6 5 5 4 4 4 3 3 3 2 2 2 2 2 1 1 1 1 1 1 2 2 2 2 1 1
12 12 8 6 7 9 8 9 14 20 20 17 11 13 10 6 5 5 4 4 4 4 4 4 3 3 3 2 2 2 2 2 1 1 1 1 1 1 1 1 1 1 1 1
12 11 7 6 6 7 9 11 8 14 13 16 13 11 7 6 6 5 5 4 4 4 4 4 3 3 3 2 2 2 2 2 1 1 1 1 1 1 1 1 1 1 1 1
8 12 7 7 6 6 7 7 12 11 18 19 13 11 11 9 8 7 6 5 5 4 3 3 3 3 2 2 2 2 2 2 1 1 1 1 1 1 1 1 1 1 1 1
7 9 10 7 8 9 9 10 10 10 12 17 18 14 9 8 6 6 5 5 3 3 4 3 3 2 2 2 2 2 2 2 2 1 1 1 1 1 1 1 1 1 1 3
7 9 12 10 7 6 7 9 9 14 14 13 16 14 6 6 6 5 5 4 4 3 3 3 3 3 3 2 2 2 2 2 2 1 1 1 1 1 1 1 2 2 4 4
7 10 14 12 10 7 9 8 8 9 10 13 17 14 6 6 6 5 4 5 4 4 3 3 3 3 3 3 2 2 2 2 2 2 2 2 2 2 2 3 3 3 3 4
7 9 11 15 12 9 10 9 9 10 14 14 13 11 8 7 7 6 5 4 4 4 4 3 4 3 3 3 3 2 2 2 2 2 2 3 3 3 4 4 5 5 6 7
7 11 10 9 8 8 9 9 9 10 9 12 11 10 8 7 6 6 5 4 4 4 4 3 3 4 3 3 3 2 2 2 2 2 3 4 4 2 3 4 4 5 6 6
6 11 10 12 9 9 10 9 9 9 9 9 9 9 6 5 5 5 5 5 5 4 4 4 3 3 3 3 3 3 2 2 2 3 3 3 3 3 3 4 4 5 6 7
9 10 12 14 10 10 13 10 9 8 8 8 10 8 6 6 6 5 5 5 5 4 4 4 4 4 3 3 3 3 2 2 2 3 4 4 5 6 6 6 6 6 7 7
9 10 11 15 14 18 10 7 7 8 7 7 7 6 6 6 5 4 4 4 4 4 4 4 4 3 3 3 3 3 3 3 4 5 5 5 5 6 5 6 6 6 6 6
7 10 14 16 16 12 9 8 8 9 9 6 7 6 6 5 4 5 3 3 4 4 4 3 3 3 3 3 3 3 4 4 4 5 5 5 5 5 5 5 6 5 5 6
8 8 12 15 17 18 11 7 5 6 12 6 6 6 6 5 9 7 4 4 4 3 3 3 3 3 3 3 3 4 5 5 5 5 5 4 4 4 5 5 6 6 6 6
13 13 15 15 16 13 7 6 5 12 11 6 5 5 5 6 5 4 4 4 3 3 3 2 3 3 3 3 3 4 4 5 4 4 4 4 4 5 5 6 6 6 7 8
14 15 15 14 16 17 6 7 10 7 6 5 5 5 4 4 5 5 4 4 4 4 3 3 3 3 3 3 4 5 5 5 4 5 5 5 5 6 7 8 8 9 9 10
14 11 13 11 12 7 6 6 5 5 5 5 5 4 4 5 5 4 4 4 4 4 4 3 3 4 3 3 4 5 5 5 5 6 7 8 8 8 8 9 9 10 10 12
7 7 11 10 8 7 6 5 4 4 5 4 4 4 3 5 5 5 4 4 4 4 4 4 4 5 5 4 4 5 5 5 7 8 9 9 9 10 10 11 11 11 13 14
8 7 9 9 7 7 6 5 5 5 4 4 4 4 4 4 5 4 4 4 4 4 4 4 5 5 5 5 5 5 6 7 8 8 9 11 11 12 12 14 14 15 15 15
6 8 10 11 6 7 7 5 4 5 5 4 4 4 4 4 4 4 5 5 4 4 4 4 5 5 6 6 7 7 7 8 9 11 12 13 13 13 13 14 15 14 15 15